Theta_e
300 299 299 300 300 299 299 299 299 298 298 298 297 297 296 296 295 294 294 294 293 293 292 291 291 291 291 291 291 291 291 291 291 291 291 290 290 290 289 289 289 289 289 289 289 289 289 288 288 288 287 287 288 288 289 289 290 290 290 291 291 291 290 290 290 290 290 290 290 290 290 291 291 292
299 298 299 300 300 299 298 298 298 298 297 297 297 297 296 296 295 295 295 294 294 293 292 291 291 291 291 291 291 291 291 291 291 291 290 290 290 289 289 289 289 289 289 289 289 288 288 288 288 287 287 287 287 288 289 289 289 289 290 290 290 290 289 289 290 290 290 289 289 289 289 290 291 291
299 298 300 300 299 298 298 298 298 297 297 297 296 296 296 295 295 295 295 294 294 293 292 292 292 291 291 291 291 291 291 291 291 291 290 290 289 289 289 289 289 289 289 289 289 288 288 288 287 287 287 287 287 288 288 288 289 289 289 289 289 289 289 289 289 289 289 289 288 289 289 290 290 291
298 299 300 300 298 298 298 297 297 297 297 296 296 296 296 295 295 295 295 294 294 293 293 292 292 291 291 291 291 291 291 291 291 291 290 290 289 289 289 289 289 289 289 289 288 288 288 287 287 287 287 287 287 287 288 288 288 288 289 288 288 288 288 288 288 288 288 288 288 288 289 289 290 290
297 299 300 299 298 297 298 297 297 297 297 296 296 296 296 295 295 295 295 295 294 293 293 292 292 291 291 291 291 291 291 291 291 291 290 290 289 289 289 289 289 289 289 288 288 287 287 287 287 287 286 286 287 287 288 288 288 288 289 288 288 288 288 288 288 288 288 288 287 288 288 289 289 289
298 300 299 298 298 297 297 297 297 297 296 296 296 296 296 296 296 296 295 295 294 294 293 292 292 292 291 291 291 291 291 291 291 290 290 290 289 289 289 289 289 289 288 288 288 287 287 287 287 286 286 286 287 287 288 287 287 288 288 288 288 288 288 287 287 287 287 287 287 287 287 288 288 289
299 300 299 297 297 297 297 297 297 297 296 296 296 296 296 296 296 296 295 294 294 294 293 292 292 292 291 291 291 291 291 291 290 290 290 290 289 289 288 289 289 289 288 288 288 288 287 287 286 286 286 286 287 287 287 287 287 287 288 287 287 287 287 287 286 286 286 286 286 287 287 287 288 288
299 299 298 297 298 297 297 297 297 296 296 296 296 296 296 297 296 296 295 294 294 293 293 292 292 291 291 291 291 291 291 291 290 290 290 290 289 289 288 288 289 288 288 288 288 288 287 287 286 286 285 286 286 287 287 287 287 287 287 287 287 286 286 286 286 286 286 286 286 286 287 287 287 287
298 298 297 297 297 297 297 297 296 296 296 296 296 297 297 297 296 296 295 294 294 293 293 292 291 291 291 291 291 291 291 290 290 290 290 290 289 289 288 288 288 288 288 287 288 288 287 286 286 285 285 285 286 286 287 286 287 287 286 286 286 286 286 285 285 285 285 285 285 286 286 286 286 286
297 297 297 297 297 297 297 297 296 296 296 296 297 297 297 297 297 296 295 294 294 293 293 292 291 291 291 291 290 290 290 290 290 290 290 290 289 289 288 288 288 289 288 287 287 287 287 286 286 285 285 285 286 286 286 286 286 286 286 286 286 285 285 285 285 285 285 285 285 285 285 285 285 285
296 296 296 296 296 297 296 296 296 296 296 296 297 298 298 297 297 296 295 294 294 293 292 291 291 291 290 291 290 290 290 290 290 290 290 290 289 289 288 288 288 288 288 287 287 287 286 286 285 285 285 285 285 286 286 286 286 286 286 285 285 285 285 285 285 285 284 284 284 284 284 284 285 285
296 296 296 296 296 296 296 295 295 295 296 297 298 298 298 298 297 296 295 295 294 293 292 291 291 291 290 290 290 290 290 290 290 290 290 290 289 289 288 288 288 288 288 287 286 287 287 286 285 285 285 284 285 285 285 285 285 285 285 285 284 284 284 284 284 284 284 284 284 283 283 284 284 284
295 295 296 296 296 296 295 295 295 295 296 297 298 298 298 298 297 297 296 295 294 293 292 291 291 291 290 290 290 290 290 290 290 290 289 289 289 288 288 287 287 288 288 287 286 286 287 286 285 285 285 284 284 284 285 285 284 284 285 284 284 284 284 284 284 284 283 283 283 283 283 283 283 283
296 295 296 295 295 295 295 295 295 296 297 298 298 299 299 299 298 297 296 295 293 292 291 291 291 290 290 290 290 290 290 290 290 289 289 289 289 288 288 288 287 287 287 287 286 286 286 285 285 284 284 284 284 284 284 284 284 284 284 284 284 284 284 283 283 283 283 283 282 282 282 283 283 282
296 296 296 295 295 295 295 295 295 296 297 298 299 299 299 299 298 297 296 294 293 292 291 291 290 290 290 289 289 289 290 290 289 289 288 288 288 288 288 288 287 287 287 287 287 286 285 285 284 284 284 284 283 283 283 283 283 283 284 284 284 284 283 283 283 283 283 282 282 282 282 283 283 282
295 295 295 295 295 295 295 295 295 296 298 298 299 300 299 299 298 297 295 294 292 292 291 290 290 289 289 289 289 289 289 289 289 288 288 288 287 287 287 287 287 286 286 287 287 286 285 285 285 284 284 284 283 283 283 283 283 283 283 283 284 284 283 283 283 282 282 282 282 282 282 282 282 281
295 295 295 294 295 295 295 295 296 297 298 299 299 300 299 299 298 297 295 293 292 291 291 290 289 289 289 289 289 289 289 289 288 288 288 287 287 287 287 287 287 286 286 286 287 286 285 285 285 284 283 283 283 283 282 282 282 283 283 283 283 283 283 282 282 282 282 282 282 282 282 282 282 281
295 294 294 294 294 295 295 295 296 297 298 299 300 300 299 299 298 297 295 293 292 291 291 290 289 289 289 289 289 289 288 288 288 288 287 287 287 287 286 286 286 286 285 286 286 286 285 285 285 284 283 283 283 283 282 282 282 282 283 283 283 283 283 282 282 282 282 282 282 282 282 282 281 280
294 294 294 294 294 294 294 295 296 298 299 300 300 300 299 299 299 297 296 294 293 291 290 290 289 289 289 289 289 288 288 288 288 287 287 286 286 286 286 286 286 285 285 286 286 286 285 284 285 284 283 283 283 283 282 282 282 282 282 283 282 283 282 281 281 282 282 281 281 282 282 282 281 280
294 293 293 293 293 294 294 295 296 298 299 300 300 300 300 300 299 298 297 295 293 291 290 289 289 289 289 288 288 288 288 288 287 287 286 286 286 286 286 286 286 285 285 286 285 285 285 284 284 284 284 283 283 282 282 282 282 282 282 282 282 282 282 281 281 281 281 281 281 281 282 281 281 280
293 293 293 293 293 294 294 295 296 298 300 300 300 300 300 299 299 298 297 296 293 291 290 289 289 289 288 288 288 288 287 287 287 286 286 286 286 286 286 286 286 286 285 285 285 285 284 283 283 284 284 283 282 282 282 282 282 282 282 282 282 282 281 281 281 281 281 281 281 281 281 281 280 280
293 293 292 292 293 293 294 295 297 299 300 300 300 300 299 299 299 298 297 296 294 291 289 289 288 288 288 288 288 288 287 287 286 286 286 286 285 286 286 286 286 286 285 285 285 284 284 283 283 284 284 284 283 282 282 282 282 282 282 282 282 281 281 281 281 281 281 281 281 281 281 281 280 279
293 292 292 292 293 293 294 295 297 299 300 300 300 299 299 299 298 298 298 297 295 291 289 288 288 288 288 288 288 287 287 286 286 286 285 285 285 285 286 286 286 286 285 284 284 284 284 283 283 283 283 284 283 282 282 282 282 282 282 282 282 281 281 281 281 281 281 281 280 280 281 281 281 279
293 292 292 292 292 292 293 295 298 299 300 300 299 299 299 299 298 298 298 297 296 293 290 288 288 288 288 287 287 287 287 286 286 286 285 285 285 285 286 286 286 285 284 284 284 284 284 283 282 282 282 281 282 283 282 282 282 282 282 282 282 281 281 281 280 281 281 281 280 280 281 281 280 279
293 292 292 292 292 292 293 295 298 300 300 300 299 299 299 298 298 298 297 297 297 295 291 288 288 288 287 287 287 287 286 286 286 285 285 285 285 285 285 286 286 285 284 284 284 284 283 283 282 282 282 281 281 282 282 282 282 281 281 281 281 281 281 281 280 280 280 280 280 280 280 280 279 278
292 292 292 292 292 292 293 295 298 300 300 299 299 299 298 298 298 298 297 297 297 295 291 289 288 287 287 287 287 287 286 286 286 285 285 285 285 285 285 285 286 285 284 283 283 283 283 282 282 282 282 281 281 281 281 282 282 281 281 281 281 281 281 280 280 280 280 280 280 279 280 280 279 278
292 292 291 291 291 291 293 295 298 300 300 299 299 298 298 298 297 297 297 297 296 293 291 289 288 287 287 287 287 287 286 286 285 285 285 285 284 285 285 285 285 285 284 283 283 282 282 282 282 281 281 281 281 281 281 281 281 281 281 281 280 280 280 280 280 280 280 280 279 279 279 280 279 278
291 290 290 290 290 290 292 296 298 299 299 299 298 298 297 297 297 297 297 296 294 293 291 289 287 287 287 287 287 286 286 286 285 285 284 284 284 284 285 285 285 284 284 283 283 282 282 281 281 281 281 280 280 281 281 281 281 281 281 281 280 280 280 280 280 280 280 279 279 279 280 280 280 278
290 290 289 289 289 289 292 296 298 299 299 299 298 297 297 297 297 297 295 294 294 294 292 289 287 287 286 286 286 286 286 286 285 285 284 284 284 284 284 285 285 284 284 283 283 282 282 281 281 281 281 280 280 280 280 280 280 280 281 281 280 280 280 279 280 280 279 279 279 279 279 280 279 278
289 289 289 288 288 288 291 295 298 299 298 298 298 297 297 297 297 296 294 293 294 295 292 288 287 287 286 286 286 286 286 286 285 284 284 284 284 284 284 284 284 284 284 283 283 282 281 281 281 281 281 280 280 280 280 280 280 280 280 280 280 280 279 279 279 279 279 279 279 278 278 279 279 278
289 289 289 288 288 288 289 293 296 298 298 298 298 297 297 297 296 295 294 293 293 293 290 287 286 286 286 286 286 286 286 286 285 284 284 284 284 284 284 284 284 284 283 283 283 282 282 281 280 280 280 280 280 280 280 280 280 280 280 280 280 280 279 279 279 279 279 279 278 278 278 278 279 278
289 289 288 288 288 287 288 291 295 297 298 298 298 297 297 296 295 294 293 292 292 291 289 286 286 286 286 285 285 285 286 285 285 284 284 283 283 283 284 284 284 284 283 283 283 283 282 282 281 280 280 280 280 280 280 280 280 280 280 280 280 280 279 279 279 279 279 278 278 278 278 278 278 278
288 288 288 288 288 287 288 290 293 296 298 298 298 297 296 295 294 293 293 293 292 289 287 285 285 285 285 285 285 285 285 285 284 284 283 283 283 283 283 284 284 283 283 283 282 282 282 282 281 281 280 280 280 280 280 280 280 280 280 280 280 279 279 279 279 279 279 278 278 278 278 277 278 278
288 288 288 288 288 288 288 288 290 294 297 298 298 297 296 294 293 293 292 292 291 288 286 285 285 285 284 284 285 285 285 284 284 283 283 283 283 283 283 283 283 283 283 283 282 282 281 281 281 281 281 281 280 280 280 280 280 280 279 280 280 279 279 279 279 279 279 278 278 278 277 277 277 277
288 288 288 288 288 288 288 287 288 290 294 297 298 297 295 293 293 292 292 291 290 287 285 284 284 284 284 284 284 284 284 284 283 283 283 283 283 283 283 283 283 283 283 282 282 282 281 281 281 281 281 281 281 281 280 280 280 279 279 279 279 279 279 279 279 279 278 278 278 278 277 277 277 277
288 287 287 287 287 287 287 287 287 287 290 295 297 297 295 293 293 292 291 290 288 286 285 284 284 284 284 284 284 284 284 284 283 283 282 282 282 282 282 283 283 283 283 282 282 281 281 281 281 281 281 281 281 281 281 280 280 279 279 279 279 279 279 279 279 278 278 278 278 278 277 277 277 277
287 287 287 287 287 287 286 286 286 286 287 290 295 296 295 293 293 292 290 289 287 285 284 283 283 283 283 283 284 284 284 283 283 282 282 282 282 282 282 282 282 282 282 282 282 281 281 281 280 280 280 280 280 280 280 280 280 280 279 279 279 279 279 279 279 279 278 278 278 278 277 277 277 277
287 286 286 286 286 286 286 286 286 286 285 287 290 294 294 293 292 291 290 288 287 285 283 283 283 283 283 283 283 283 283 283 282 282 282 282 282 281 281 282 282 282 282 282 281 281 281 281 280 280 280 280 280 280 280 279 279 279 279 279 279 279 279 279 279 279 278 278 278 278 277 277 277 277
287 286 286 286 286 286 285 285 285 285 285 285 287 290 292 292 291 290 289 288 286 284 283 283 283 282 282 283 283 283 283 282 282 282 282 281 281 281 281 281 281 281 281 281 281 281 281 281 280 279 279 279 279 279 279 279 279 279 279 279 279 279 279 278 278 279 278 278 278 277 277 277 277 277
287 287 287 287 286 286 286 286 285 285 285 285 285 286 288 289 289 289 288 287 286 284 283 282 282 282 282 283 283 282 282 282 282 282 281 281 281 280 280 280 280 280 281 281 281 280 280 280 280 280 279 279 279 279 279 279 279 279 279 279 279 279 279 278 278 278 278 278 278 277 277 277 276 276
288 287 287 286 286 285 285 285 285 285 285 284 284 284 284 286 287 287 286 285 284 283 282 282 282 282 282 282 282 282 282 282 282 281 281 280 280 280 280 280 280 280 280 280 280 280 280 279 279 279 279 279 279 279 279 279 279 279 279 279 279 279 279 278 278 278 278 278 278 278 277 277 276 276
288 287 286 285 285 285 284 284 283 283 283 283 283 283 283 283 284 285 285 284 283 282 282 282 282 282 282 282 282 282 282 282 281 281 280 280 280 279 279 279 279 279 279 279 279 279 279 279 279 278 278 278 278 278 278 278 278 279 279 279 279 278 278 278 278 278 278 278 278 277 277 277 276 276
288 287 286 285 284 284 283 283 283 283 282 282 282 282 282 283 283 283 283 283 283 282 281 281 281 281 281 281 281 282 281 281 280 280 279 279 279 279 279 279 279 278 278 278 278 278 278 278 278 277 277 277 277 277 277 277 278 278 278 279 279 278 278 278 278 278 278 278 277 277 277 276 276 276
288 287 287 286 284 284 283 283 283 282 282 282 282 282 282 282 282 282 282 282 282 282 281 281 281 281 281 281 281 281 281 281 280 279 279 279 279 279 278 278 278 278 278 278 278 278 278 278 278 277 277 277 277 276 277 277 277 277 277 278 278 278 277 277 277 277 277 277 277 277 276 276 276 276
287 287 287 286 285 285 284 284 283 282 282 281 281 281 281 281 281 281 281 281 281 281 281 280 280 280 280 280 281 281 280 280 279 278 278 278 278 278 278 278 277 277 277 277 277 277 277 277 277 277 277 277 276 276 276 276 276 277 277 277 277 277 277 276 276 277 277 277 277 276 276 276 276 276
Wind_Speed
26 24 22 20 18 16 14 13 11 10 8 7 6 5 5 4 4 4 6 7 7 8 10 13 15 16 18 18 20 22 23 25 26 27 28 29 30 30 30 30 30 30 31 31 31 31 32 33 33 34 33 32 29 27 28 28 27 28 29 32 34 36 37 40 43 44 44 46 49 51 51 52 55 56
26 25 23 21 19 17 15 13 12 10 8 7 6 5 5 5 6 6 7 8 8 9 10 12 15 16 17 18 20 22 24 25 26 28 28 29 30 30 29 29 29 29 30 31 31 31 31 32 32 32 32 31 28 26 27 27 26 28 29 31 34 35 37 42 44 45 45 46 49 52 52 52 54 56
27 25 23 21 19 17 16 14 12 10 9 7 6 5 5 5 6 7 8 8 9 10 11 12 15 16 17 19 20 22 23 24 26 28 28 28 29 29 28 28 28 28 29 30 30 30 31 31 31 31 30 29 27 26 26 26 25 27 28 31 34 36 38 42 45 45 45 47 49 51 51 52 53 55
27 25 23 21 20 18 16 14 12 11 9 7 6 5 4 5 7 8 10 9 9 10 13 14 15 17 17 19 21 21 22 24 25 27 27 28 29 28 28 28 28 27 28 29 29 29 29 31 30 30 28 27 26 25 24 25 25 27 29 32 35 36 39 42 45 46 46 47 49 50 50 51 52 54
27 25 24 22 20 18 16 14 13 11 9 8 6 5 5 5 7 8 10 11 11 10 13 14 15 17 18 18 20 21 22 24 24 25 26 26 28 28 28 29 28 27 27 27 28 27 28 29 30 29 27 25 24 22 22 23 24 27 30 33 34 36 39 43 45 46 46 46 48 49 49 50 51 53
28 26 24 23 21 19 17 15 13 11 9 8 6 6 5 6 7 9 10 12 13 12 12 14 15 16 18 19 20 22 23 24 25 25 26 26 27 28 28 29 28 27 26 27 27 27 27 28 28 27 26 24 23 21 20 22 24 27 30 32 34 38 40 42 44 45 45 46 47 48 48 49 50 51
28 26 25 24 21 19 17 15 13 11 10 8 6 6 6 7 8 10 11 12 14 14 13 14 15 16 18 19 21 22 23 24 25 25 26 26 27 27 28 28 28 27 26 26 28 28 27 27 27 25 24 22 21 19 19 21 24 26 29 32 35 38 40 41 44 43 43 44 45 47 47 48 49 49
28 27 25 24 22 20 18 15 14 12 10 8 7 6 6 7 9 10 12 13 14 15 15 15 16 17 18 19 21 22 23 24 24 25 26 27 27 27 27 27 27 27 25 26 27 28 27 27 26 24 23 22 20 19 19 21 23 25 29 32 34 38 39 40 42 42 42 42 43 44 46 46 47 47
28 27 25 24 22 20 18 16 14 12 10 9 7 6 6 7 9 10 12 13 14 15 16 15 16 17 19 19 20 22 23 24 24 25 25 26 27 27 25 25 26 27 26 26 27 27 26 26 25 23 22 22 21 19 19 20 23 25 28 32 34 36 38 39 40 42 42 41 40 42 43 43 45 46
28 27 25 24 22 20 18 16 14 12 10 9 7 6 7 8 9 11 12 13 14 15 16 16 16 17 19 20 20 21 23 24 25 26 25 25 26 26 26 25 25 25 25 26 27 27 26 25 24 21 20 20 18 17 17 19 21 23 26 30 33 36 37 38 40 41 41 41 40 41 43 43 44 47
28 27 26 24 22 20 18 16 14 12 11 9 8 7 8 8 10 11 12 13 14 15 16 16 17 17 19 20 21 21 22 23 25 27 28 28 27 26 26 25 25 25 25 25 26 26 25 24 23 21 19 19 17 15 15 17 19 21 24 28 32 35 36 38 40 40 39 40 40 40 43 44 45 46
30 28 26 24 22 20 18 16 15 13 12 10 8 8 8 9 10 11 12 13 14 15 15 16 17 18 19 20 21 21 22 23 25 27 28 29 29 28 26 25 26 27 26 26 26 26 24 24 23 22 20 19 17 15 15 17 18 20 24 27 30 32 33 35 39 39 37 38 39 40 42 44 45 46
31 29 27 25 23 21 19 17 16 14 13 11 9 9 9 10 11 12 13 14 14 14 15 16 17 18 19 20 21 21 22 24 25 27 27 28 29 29 27 24 24 28 28 26 25 26 26 25 24 23 22 21 20 17 16 17 18 21 24 27 30 31 31 32 35 36 35 36 37 39 41 43 45 46
32 29 28 26 23 22 20 18 17 15 14 12 10 10 10 11 12 13 14 14 14 14 15 16 18 18 19 20 21 22 23 24 25 26 27 28 29 29 29 26 24 26 30 28 25 24 26 25 24 24 24 23 21 19 17 16 17 20 24 27 29 31 32 32 32 33 33 34 36 38 40 42 43 44
32 30 28 26 24 23 21 19 18 16 15 13 12 11 11 11 12 13 14 14 14 14 15 17 18 19 19 20 21 22 23 24 25 26 27 28 29 29 30 29 26 26 30 30 27 24 25 25 24 23 24 23 21 19 17 15 16 18 22 26 29 31 33 33 32 31 31 33 34 36 38 40 42 42
31 30 29 27 25 23 21 20 19 17 16 14 12 11 11 12 13 14 14 14 14 15 16 17 18 19 20 20 21 22 23 24 25 25 26 27 27 28 28 28 27 27 30 31 29 25 24 26 25 24 23 22 20 18 16 15 15 17 20 25 28 30 32 32 31 30 30 31 33 35 37 39 40 41
32 30 29 28 26 24 23 22 20 19 17 14 13 12 12 13 14 15 15 14 14 15 16 17 18 19 20 21 21 23 23 24 24 25 26 26 26 27 26 26 26 27 29 31 29 26 24 25 25 25 23 21 19 17 15 14 15 16 19 24 27 29 30 30 30 29 29 30 31 34 36 37 39 39
32 31 29 28 26 25 24 23 22 20 17 15 13 13 12 13 15 15 16 15 15 16 16 17 18 19 20 21 22 22 23 23 24 25 25 26 26 26 25 23 23 25 28 30 29 26 25 26 26 25 24 22 19 16 13 13 14 16 19 23 27 29 28 28 28 28 28 29 30 32 35 36 37 37
32 31 29 28 27 26 25 24 22 20 18 15 14 13 13 14 15 16 16 17 17 17 17 18 18 19 20 21 22 22 23 23 24 24 25 25 26 25 24 22 21 22 26 27 27 25 25 26 26 25 24 22 18 15 13 12 13 16 19 23 26 28 27 26 26 26 26 27 29 31 33 35 35 35
32 31 30 29 28 27 26 25 23 21 18 16 14 13 13 14 15 16 16 17 18 18 18 18 19 20 21 21 22 22 23 23 24 24 24 24 25 24 24 22 20 21 24 25 25 24 24 25 26 24 23 22 19 16 14 13 13 14 17 21 25 26 26 25 24 24 24 26 28 30 31 33 33 32
32 31 31 30 29 28 27 26 25 22 18 16 15 13 13 14 15 15 16 17 19 19 19 18 19 20 21 21 22 22 22 23 23 24 24 24 24 23 24 23 21 21 24 24 23 23 23 23 26 25 22 19 18 18 15 12 11 12 16 20 24 25 24 23 23 23 23 24 27 28 30 31 31 30
33 32 32 31 30 29 28 27 25 22 19 17 15 14 14 14 14 15 17 18 20 20 19 19 20 20 21 21 22 22 22 22 23 24 23 23 23 23 22 22 22 21 22 24 24 22 20 20 23 26 23 18 16 17 16 11 9 11 15 19 22 23 22 22 22 22 22 23 25 27 29 30 29 28
34 34 33 32 31 31 29 28 25 22 19 17 16 15 15 14 14 16 17 19 21 21 20 20 20 21 22 22 22 22 22 23 23 23 23 22 22 23 21 21 21 20 20 22 23 21 20 20 20 24 26 22 18 17 14 10 9 11 14 18 21 21 21 21 21 21 21 22 24 25 28 30 29 27
36 35 34 34 33 32 30 28 26 23 20 18 17 17 16 15 15 16 18 20 22 22 21 21 21 22 22 22 22 22 22 23 23 22 22 22 21 22 21 20 20 19 18 21 22 20 20 21 20 20 22 22 21 19 14 9 8 11 15 18 21 21 19 19 20 21 20 21 22 24 26 29 29 27
36 36 35 35 34 33 31 29 26 23 21 20 19 18 17 16 17 18 19 21 24 25 23 22 22 22 22 22 22 22 22 22 23 22 21 21 21 22 21 21 19 17 16 19 22 20 18 19 20 20 20 20 20 20 16 9 7 11 16 19 20 20 19 19 19 20 20 19 21 23 25 27 27 26
36 35 35 35 34 33 31 29 27 24 22 22 21 20 18 18 19 19 20 23 26 26 24 22 22 22 22 22 23 23 22 22 23 22 20 20 20 21 21 21 20 18 15 16 18 18 17 17 19 20 21 20 19 19 17 10 7 9 13 17 19 19 18 18 18 19 19 19 20 22 23 25 25 23
34 33 33 34 33 32 31 29 27 25 24 25 24 22 20 20 20 21 22 25 27 26 23 23 23 22 22 23 23 23 23 22 23 22 21 20 20 20 20 20 20 19 17 15 16 16 16 16 17 19 21 21 20 19 16 11 7 7 10 14 17 18 17 17 17 18 19 19 19 20 21 23 24 22
33 32 32 33 33 32 31 30 28 28 28 28 26 24 22 22 22 23 24 25 26 26 24 24 24 23 23 24 23 23 23 23 23 22 21 20 20 20 20 19 19 19 17 16 15 15 15 16 16 17 19 20 20 19 16 11 8 7 9 11 14 15 15 15 15 16 18 18 18 19 21 23 24 21
33 32 31 31 32 32 32 32 31 31 31 30 28 25 23 23 23 24 24 25 26 26 24 24 25 25 24 24 24 23 23 23 23 23 21 21 20 20 20 18 18 18 17 15 15 15 15 15 15 15 16 17 18 17 16 12 8 8 9 11 12 14 15 14 14 15 16 17 17 19 21 23 24 22
35 34 32 32 32 34 34 35 35 35 33 32 30 28 26 26 25 25 26 25 25 26 26 26 26 26 25 25 24 23 22 23 23 23 22 21 20 21 20 19 17 17 17 16 14 14 14 14 15 15 14 15 16 16 15 12 9 8 9 12 13 13 13 13 13 13 14 15 16 17 19 20 22 22
37 36 35 35 35 36 37 39 39 38 36 34 33 31 29 28 27 27 28 26 26 26 27 28 29 27 26 25 24 23 23 23 23 23 23 21 20 20 21 20 17 16 16 16 15 14 13 12 14 15 14 14 14 14 14 13 10 8 9 11 12 12 13 13 12 12 13 13 13 14 15 17 19 20
39 39 39 38 39 40 41 43 44 42 40 38 36 34 32 30 29 29 29 28 28 28 30 30 30 28 26 25 24 23 23 23 23 23 23 22 20 20 21 20 18 16 16 15 15 15 13 11 11 13 14 15 14 13 14 13 12 10 8 9 10 11 12 13 12 11 11 11 12 12 13 15 18 19
41 41 41 42 43 44 45 47 48 46 43 41 38 36 34 33 31 30 30 30 30 30 31 32 31 28 27 25 24 24 23 23 22 23 23 22 21 20 20 20 18 16 15 15 15 15 14 12 12 12 13 14 15 15 14 13 12 11 10 9 9 10 11 12 12 11 10 9 10 11 12 13 15 17
43 43 44 45 46 47 48 50 51 49 47 44 40 38 36 34 32 31 31 31 32 32 33 33 31 29 28 26 24 24 23 22 22 22 23 23 22 21 21 20 18 17 16 15 14 15 14 13 13 12 12 13 14 15 15 14 13 12 11 10 9 9 10 11 11 11 11 10 10 10 10 11 13 15
43 45 46 48 49 49 50 52 52 51 49 45 41 38 36 35 34 33 32 32 33 34 34 34 32 30 28 26 24 24 23 23 22 22 22 23 23 22 22 21 18 17 17 16 15 14 14 14 14 13 13 13 13 13 13 13 12 12 12 12 11 10 10 10 11 11 11 11 10 10 9 9 10 12
43 45 47 49 51 52 52 53 53 52 50 47 43 39 37 36 35 34 33 32 33 35 35 34 33 31 29 27 25 24 23 23 22 22 22 23 23 23 22 21 19 18 17 17 15 15 15 15 15 15 14 13 14 13 12 12 12 12 12 13 12 11 11 11 10 10 10 11 10 10 9 9 9 10
42 44 46 49 51 52 54 54 54 53 51 49 46 42 39 37 36 34 33 33 34 36 36 35 33 31 30 28 26 24 24 23 23 22 22 23 23 23 22 21 20 19 18 17 16 15 15 15 15 15 14 14 14 14 13 13 13 13 12 12 12 11 11 11 10 9 9 10 10 9 9 9 9 9
41 42 45 47 50 51 53 53 53 52 51 50 48 44 41 38 36 34 34 35 36 36 37 35 33 32 31 28 26 25 24 24 23 23 23 23 24 23 22 21 20 19 18 17 17 16 16 15 14 15 15 15 15 14 13 13 14 14 13 12 12 12 12 12 11 9 9 9 9 9 9 9 8 8
42 43 44 46 47 49 50 51 51 51 51 50 49 47 44 41 39 37 36 36 36 37 37 36 34 33 31 29 27 26 25 24 24 23 23 23 24 23 22 20 19 18 18 17 17 17 17 15 15 15 15 15 15 14 14 14 14 14 14 13 13 13 13 13 11 10 9 9 9 9 9 8 8 8
41 43 44 45 46 47 47 48 49 49 49 49 50 49 48 46 44 41 39 37 37 37 37 35 34 33 32 30 28 27 25 24 24 24 23 23 23 22 21 19 18 17 17 16 16 17 17 16 15 15 15 16 15 15 15 14 13 13 13 12 12 12 13 13 12 11 10 9 9 9 8 8 8 8
40 42 43 43 44 44 45 45 46 46 47 48 48 49 48 46 44 42 39 38 38 37 36 35 35 35 34 32 29 27 26 25 24 23 23 23 22 21 20 19 17 16 16 16 15 16 17 17 17 16 17 17 16 15 15 14 13 12 12 11 11 11 12 12 12 11 10 10 10 9 8 8 8 9
36 39 40 41 42 42 43 43 43 44 44 44 45 45 44 43 41 40 39 39 39 38 37 37 36 36 35 32 29 27 26 25 24 23 23 22 21 20 19 18 17 16 15 14 14 15 16 16 16 17 17 17 17 17 15 14 14 13 12 10 10 11 11 11 12 11 11 11 11 10 9 9 9 9
33 35 37 38 39 40 40 40 40 40 41 41 41 41 41 40 40 39 39 39 39 39 39 38 37 37 35 32 30 28 26 25 24 23 23 22 21 20 18 17 16 15 14 13 13 14 15 15 15 16 17 18 18 18 16 15 14 14 13 12 11 11 11 11 12 12 12 12 12 11 11 10 10 10
31 33 34 35 36 37 37 37 38 38 38 38 38 38 39 39 39 39 38 38 38 39 39 38 37 37 35 32 30 28 27 25 23 23 22 21 20 19 18 16 16 15 14 13 13 13 14 15 15 16 17 17 18 18 18 16 15 14 14 14 13 13 12 13 13 13 13 13 13 12 13 12 12 11
31 32 33 34 35 36 36 37 37 37 37 37 37 37 37 37 37 37 38 38 38 38 38 38 37 36 34 32 30 28 26 24 23 23 22 21 20 19 18 16 15 15 14 13 12 12 13 14 15 15 16 16 17 18 18 17 16 16 15 15 15 14 14 14 14 14 14 14 14 14 14 14 13 12
Wind_Direction
207 206 206 208 208 209 209 208 211 215 223 234 244 266 291 324 346 351 359 355 343 345 344 333 334 341 343 341 341 341 344 347 348 349 350 350 352 355 357 356 354 353 351 350 352 355 353 351 351 349 347 346 346 347 348 348 347 346 347 347 343 341 344 347 348 347 347 345 343 345 345 343 344 345
206 205 206 208 209 209 209 209 213 216 224 236 249 271 295 319 335 341 351 353 343 342 343 335 332 339 341 339 340 343 346 347 347 348 350 350 351 356 357 355 352 351 349 348 350 354 353 350 350 349 347 345 344 347 348 347 347 348 349 346 342 342 345 347 348 348 347 346 345 346 347 346 347 347
206 205 207 209 209 209 209 211 214 219 226 237 251 274 297 315 329 335 340 349 345 334 337 338 334 336 340 339 340 344 345 346 346 348 349 348 350 354 354 352 350 348 348 347 349 353 352 350 349 347 346 344 342 344 347 345 346 348 346 344 344 345 347 347 348 349 348 347 347 347 348 348 349 349
205 206 208 209 209 209 211 213 215 221 228 239 253 270 294 310 323 330 331 338 344 335 334 338 335 335 339 339 339 342 344 345 346 346 346 347 349 350 350 349 348 347 348 348 349 352 352 349 348 346 345 343 340 342 346 344 344 347 345 344 346 347 347 348 349 350 349 348 349 348 349 350 351 351
204 207 208 209 210 210 212 214 218 223 230 238 253 269 287 306 317 324 325 328 336 337 335 335 333 333 335 337 338 340 343 343 344 345 345 347 348 347 346 346 346 347 350 351 350 351 352 350 346 345 345 342 339 342 344 342 344 348 346 344 347 347 348 350 351 351 350 349 350 350 350 351 352 353
205 207 209 210 211 211 212 216 219 225 232 239 253 270 287 306 314 319 324 325 329 335 335 332 331 331 334 335 338 340 342 342 343 343 344 346 348 346 345 344 345 347 350 351 350 350 352 349 345 344 345 341 339 339 340 341 342 344 345 345 348 349 349 351 352 352 351 351 351 351 352 353 354 354
208 209 209 210 212 212 214 217 221 225 231 239 251 265 286 306 313 318 323 324 327 331 333 332 330 332 334 335 338 341 340 340 341 342 344 346 346 346 345 344 345 349 353 352 350 350 350 348 345 344 343 339 336 336 337 339 339 342 347 349 349 350 352 354 354 353 353 352 353 353 354 356 356 356
211 211 211 212 213 214 215 218 222 226 230 237 248 262 282 303 311 316 319 321 325 328 330 332 332 333 335 337 338 338 338 338 340 342 344 343 343 345 345 344 345 350 355 353 351 350 348 346 346 345 342 337 335 335 336 337 339 344 352 355 351 351 355 356 356 356 355 354 354 356 357 358 357 358
213 213 213 214 215 216 218 220 222 225 230 235 245 262 282 298 307 311 316 320 324 325 327 331 333 333 335 336 336 336 336 337 338 341 343 341 340 342 344 346 346 349 353 353 351 351 348 346 348 346 341 338 336 335 334 335 339 345 354 356 352 353 356 358 357 357 357 357 357 358 360 359 358 0
214 214 214 215 216 217 219 221 224 226 229 235 242 260 280 292 302 308 313 318 321 323 326 330 333 334 334 333 334 334 335 336 336 337 339 338 338 341 344 346 347 348 353 355 351 350 349 347 349 348 341 338 335 332 331 334 338 346 355 356 353 353 356 358 359 358 358 359 360 1 1 359 360 1
214 214 215 216 217 219 220 220 224 226 228 234 241 259 278 289 298 305 311 315 318 320 325 329 331 333 331 330 331 333 334 335 335 335 336 336 337 342 345 347 346 346 353 357 352 349 350 349 349 349 345 340 334 327 327 331 339 350 356 357 355 355 357 359 360 360 359 360 1 2 1 360 1 2
214 214 215 216 217 219 220 220 222 226 227 231 241 258 275 285 293 301 306 311 315 320 324 327 328 329 328 327 329 331 332 333 335 335 335 335 336 341 347 350 347 344 350 357 352 345 349 351 349 350 350 346 338 328 323 327 339 353 358 358 357 358 359 359 360 1 1 359 360 3 2 1 1 2
215 216 216 216 218 219 219 220 222 224 227 231 241 254 269 281 289 296 301 307 313 319 322 324 325 326 325 325 327 330 332 334 335 334 333 334 337 339 345 351 350 342 343 355 354 344 348 354 352 351 352 349 344 337 329 332 345 355 357 358 358 358 360 0 0 2 0 358 359 2 3 2 2 3
215 216 217 217 218 218 218 221 222 223 226 231 241 253 266 278 286 293 298 304 312 317 320 321 322 323 323 324 326 329 332 333 333 332 332 335 337 337 340 347 351 343 339 349 355 348 349 356 356 353 352 351 348 342 338 345 352 353 354 357 357 357 358 359 1 3 360 357 359 2 3 3 3 4
218 218 217 217 218 218 219 221 221 222 226 233 243 254 266 276 284 291 296 303 311 314 317 319 320 320 322 324 325 327 330 331 331 332 333 335 336 338 339 343 348 344 338 343 352 351 350 356 359 357 354 352 350 346 344 350 353 350 352 357 357 355 356 358 1 3 0 357 359 1 4 4 3 5
220 220 219 218 218 219 220 220 221 223 227 233 244 255 267 276 283 289 295 302 308 311 315 318 318 319 321 323 324 325 328 329 329 331 333 334 335 338 340 342 345 343 337 339 346 350 351 354 358 359 355 352 350 347 347 350 350 349 352 356 359 356 355 359 2 4 1 357 358 1 3 5 5 5
220 220 220 219 219 220 220 220 220 222 226 233 243 254 266 275 283 289 293 300 305 309 314 316 317 318 320 321 322 323 325 327 328 329 331 333 334 336 339 341 342 340 336 336 341 349 352 352 356 359 356 354 352 347 349 353 350 350 353 357 360 357 356 0 4 4 1 357 358 1 3 5 6 6
221 221 221 221 222 222 222 221 222 223 227 233 242 254 264 275 283 288 292 297 303 308 311 314 316 316 317 318 319 321 322 324 326 328 330 331 332 334 335 339 342 339 333 333 338 346 350 350 355 359 354 353 358 352 349 356 353 350 355 360 1 358 357 2 4 3 1 359 358 1 3 5 6 6
223 222 222 223 223 224 223 223 223 223 227 233 243 253 263 275 281 284 290 295 301 306 309 312 314 314 314 315 316 317 319 321 324 326 328 328 328 329 331 337 343 337 329 330 335 341 348 348 352 358 353 351 2 4 351 353 353 350 356 3 2 357 358 3 4 2 1 1 1 2 4 5 7 7
223 223 223 223 223 223 223 224 223 224 228 234 243 253 264 277 283 285 290 294 297 302 305 308 311 312 311 312 313 314 317 320 321 323 325 324 324 325 328 334 340 335 328 329 332 338 349 349 346 352 355 350 358 7 359 351 351 354 1 5 3 358 358 2 3 2 2 2 3 4 5 6 7 7
223 223 223 223 224 225 225 225 224 226 230 236 243 254 267 279 286 290 294 295 295 298 301 304 307 307 307 308 309 312 315 317 319 320 321 321 321 324 326 329 335 335 328 326 331 339 349 349 341 345 356 355 354 1 2 358 357 1 7 7 3 359 358 360 1 1 2 3 4 4 5 7 8 8
224 223 224 224 225 226 226 226 226 228 233 239 245 256 270 281 288 292 296 295 292 293 297 300 302 302 303 305 307 311 313 314 315 316 317 318 319 321 324 325 330 334 327 324 331 338 345 347 341 340 349 359 3 2 360 359 1 4 7 8 4 360 359 359 0 360 1 4 5 4 5 7 9 10
224 224 225 225 226 227 225 225 227 231 235 241 248 257 270 281 288 292 297 294 288 289 294 296 297 299 300 303 305 308 310 310 311 312 313 315 316 317 320 321 324 331 327 322 326 333 338 345 347 343 344 350 2 8 2 353 356 2 4 5 4 1 359 358 359 359 1 4 5 6 6 7 8 12
227 227 227 227 227 227 226 226 229 233 238 243 249 258 269 279 286 291 295 291 285 285 289 292 293 296 298 300 303 305 306 306 307 308 309 311 313 315 315 315 318 325 322 316 320 329 337 342 345 346 343 340 345 359 5 356 353 360 1 1 1 1 359 358 358 359 1 3 5 8 10 9 8 12
232 232 231 231 230 229 228 229 232 236 240 244 250 259 268 276 283 288 291 289 285 282 283 286 290 292 295 297 299 301 301 301 303 304 306 308 311 313 312 309 311 317 317 312 317 326 335 339 339 341 342 337 336 347 356 356 358 2 360 357 356 357 357 357 357 358 359 2 5 8 12 11 11 12
235 236 236 235 235 233 232 232 235 239 242 246 252 259 266 272 280 285 288 288 284 279 277 282 286 289 292 294 295 297 298 299 301 302 302 305 308 308 307 304 305 310 311 309 313 320 328 334 335 335 337 338 336 340 346 350 358 5 1 354 350 353 356 355 354 355 357 360 3 8 12 14 14 15
239 240 239 238 237 237 235 235 237 241 245 248 253 259 264 271 278 283 285 285 281 276 275 280 284 286 289 291 293 296 297 298 300 301 301 303 304 303 302 300 301 304 306 307 310 315 321 328 332 332 333 334 335 337 342 347 347 352 2 359 351 349 351 352 352 353 356 357 0 4 10 15 17 18
240 242 242 241 240 239 237 237 240 243 246 249 253 257 262 269 276 281 283 282 278 274 275 280 283 285 287 288 290 293 296 297 298 299 300 300 300 299 298 297 297 298 301 306 309 312 317 321 325 329 330 330 330 331 334 337 335 335 351 2 356 347 347 350 352 352 353 353 356 0 6 14 17 19
240 240 241 242 242 241 239 239 241 244 246 248 253 257 261 268 275 277 276 276 277 277 276 278 280 282 283 284 287 289 293 296 297 298 298 297 295 295 295 293 292 293 297 302 305 308 312 314 317 323 327 326 325 325 323 322 325 329 340 354 356 350 348 349 350 351 351 351 355 1 6 11 14 17
240 240 239 238 238 239 240 240 241 244 246 249 253 256 259 265 270 269 266 270 275 277 275 274 275 276 278 280 283 286 290 293 295 295 295 294 292 291 291 290 288 289 293 297 301 303 306 308 311 316 321 322 322 321 314 309 312 320 330 343 351 350 346 343 345 348 349 350 356 3 6 9 12 15
242 241 239 237 236 237 239 241 243 244 246 248 251 254 258 263 265 263 263 265 269 271 271 270 270 271 274 276 279 283 287 291 293 293 293 292 290 288 288 287 285 284 288 291 294 297 300 302 304 307 312 317 320 316 307 299 298 303 317 333 344 346 344 341 341 345 347 349 356 1 4 7 12 15
244 243 241 239 238 237 238 241 243 244 246 248 251 255 259 262 262 262 265 267 267 268 268 267 268 269 270 273 275 280 284 288 290 291 291 291 289 285 284 284 282 282 285 287 290 292 295 297 299 300 305 311 313 310 304 297 291 291 302 321 335 341 342 339 336 338 342 345 348 355 4 8 11 14
246 245 245 243 242 241 242 244 245 246 247 249 252 256 259 261 263 265 269 271 270 268 267 266 267 268 268 270 273 277 282 286 288 289 290 289 288 284 281 280 279 278 279 282 286 290 293 295 297 297 299 303 304 304 302 297 291 289 292 304 321 332 336 334 331 331 332 335 340 350 2 9 10 13
248 248 248 248 247 246 247 248 248 249 249 250 253 258 261 263 265 268 271 272 270 268 266 266 266 266 266 268 271 275 280 283 284 286 287 286 286 284 280 277 275 273 275 277 278 281 284 288 292 295 296 296 296 295 295 293 290 287 285 290 303 316 324 328 327 324 322 323 332 343 356 6 9 12
252 252 251 251 251 251 250 251 251 251 251 252 256 260 263 264 267 270 272 272 270 268 266 266 266 265 265 266 270 274 278 280 281 282 283 284 285 284 280 276 271 268 270 272 273 275 277 280 284 289 293 294 293 291 290 289 288 283 279 282 290 299 309 316 318 318 316 318 323 332 345 358 6 8
257 255 254 254 255 254 254 255 255 255 255 255 258 262 265 266 269 273 274 273 270 268 266 265 265 264 264 265 268 272 275 278 279 280 280 282 283 281 278 275 271 266 265 268 269 270 272 276 281 285 289 292 293 294 294 292 288 284 280 280 284 289 294 301 307 309 310 310 315 323 333 343 354 3
261 259 258 258 258 257 258 258 258 258 259 259 260 263 266 269 272 275 275 272 270 267 266 265 264 263 263 263 266 269 273 275 277 278 279 280 280 278 275 273 270 267 265 265 266 266 268 271 276 281 286 289 291 296 300 297 293 292 290 285 283 284 286 291 296 300 301 303 307 314 322 331 340 352
264 263 262 261 261 261 261 261 261 261 262 261 261 263 266 270 273 276 275 273 271 268 265 264 264 263 262 262 265 268 271 272 274 277 279 278 277 276 274 271 269 267 264 262 263 265 266 267 270 275 280 284 287 293 296 293 291 293 291 285 280 279 282 286 287 288 291 293 296 303 312 321 328 337
267 267 267 266 266 266 266 266 266 267 267 266 265 265 267 270 273 276 277 275 272 269 266 264 264 263 262 262 264 266 268 271 273 276 276 275 274 274 272 270 267 265 263 261 260 261 263 264 266 270 273 277 281 284 286 286 287 288 287 284 278 274 275 278 280 280 280 280 284 292 300 307 314 323
272 273 273 273 273 272 272 272 272 272 272 271 269 267 266 268 271 275 276 275 272 269 265 264 264 262 261 260 261 263 266 269 271 273 273 271 270 270 270 268 266 263 261 259 258 259 261 262 262 264 267 271 273 275 278 281 284 285 286 285 279 270 267 269 274 276 273 270 272 279 287 295 301 307
276 276 277 277 277 276 276 276 275 274 274 273 271 269 267 268 270 274 275 273 270 267 264 262 261 259 258 257 258 261 264 267 269 269 269 268 268 268 267 266 264 262 261 260 258 258 259 260 260 260 262 266 269 271 274 279 282 284 285 282 275 268 265 264 268 270 268 265 266 270 276 283 288 292
280 280 280 280 279 279 279 278 278 277 277 276 274 273 271 271 272 273 273 272 268 264 260 259 258 256 255 255 256 259 262 265 266 266 264 263 263 263 263 263 262 260 260 260 257 256 257 258 259 259 260 263 267 269 271 275 278 280 281 276 267 263 261 261 261 263 263 261 261 264 269 275 278 283
285 283 283 282 282 281 282 281 281 281 280 280 278 277 275 273 272 272 273 271 268 263 260 258 257 255 254 254 255 258 260 262 262 261 261 261 260 260 260 260 260 260 259 259 256 255 255 257 258 260 261 263 266 268 269 270 271 274 276 275 268 263 262 260 259 259 258 257 257 258 262 266 270 275
291 289 288 287 285 284 283 283 282 281 281 280 279 278 276 275 274 273 272 270 267 262 259 257 256 255 253 252 253 255 258 258 257 256 256 257 258 258 258 257 257 257 257 256 254 254 255 256 257 258 260 262 263 265 266 266 266 268 270 271 270 268 267 265 263 260 257 256 255 256 258 259 261 265
295 293 292 290 288 286 285 283 281 279 278 277 276 276 276 275 274 273 270 268 264 261 257 255 254 253 250 250 251 254 256 255 252 251 252 252 253 254 255 255 256 256 256 254 252 252 254 256 257 258 259 260 261 263 265 265 264 263 263 265 267 268 267 267 268 265 261 257 255 255 257 258 257 257